CAPE
1612 1670 1568 1815 1763 1671 1557 1425 1509 1341 1395 1338 1257 1123 1093 1379 1384 1340 1357 1371 1369 1429 1441 1426 1384 1440 1380 1470 1523 1608 1401 1252 1242 1246 1198 1144 1079 1021 900 782 1101 1204 1318 1224 1300 1480 1418 1362 1253 1339 1317 1348 1300 1187 1108 944 946 970 717 567 796 1067 1183 1395 1384 1338 1178 771 556 527 516 606 470 476 235 111 216 254 251 242 123 19 140 97 0
1516 1788 1660 1666 1600 1637 1605 1418 1338 1558 1462 1377 1307 1285 1273 1240 1256 1360 1363 1376 1281 1295 1239 1184 1352 1353 1360 1418 1466 1542 1428 1352 1262 1254 1240 1164 1078 982 857 782 904 944 1053 1405 1473 1425 1402 1373 1268 1108 1247 1178 1203 1128 1070 1137 1112 959 748 703 744 810 1319 1509 1389 1094 920 838 731 571 451 443 495 260 105 94 71 53 134 138 124 62 164 13 0
1832 1862 1572 1514 1714 1693 1574 1580 1549 1531 1573 1576 1580 1518 1322 1324 1324 1375 1331 1357 1238 1212 1221 1162 1194 1321 1342 1356 1484 1438 1404 1420 1459 1375 1231 1141 1054 999 947 908 828 674 714 1248 1297 1205 1364 1356 1237 1092 1143 1170 1082 1077 948 947 997 1017 820 736 690 803 924 965 917 816 789 722 601 684 664 608 544 408 310 147 72 60 69 125 78 17 44 48 4
1836 1879 1728 2029 1833 1645 1675 1612 1658 1623 1694 1739 1717 1643 1412 1346 1451 1553 1484 1545 1579 1518 1367 1192 1363 1394 1406 1465 1485 1445 1377 1349 1361 1373 1361 1387 1319 1218 1015 890 777 812 925 840 984 1062 1140 1116 1070 1033 1061 1039 987 934 852 779 932 942 847 728 693 984 1173 1154 1070 993 1000 1019 805 602 624 497 309 217 152 416 282 195 128 44 219 208 210 60 3
1667 1761 1631 1714 1673 1773 1695 1583 1698 1700 1764 1817 1769 1673 1456 1567 1684 1580 1625 1717 1753 1668 1608 1636 1535 1543 1546 1566 1471 1362 1304 1337 1380 1270 1280 1332 1407 1278 1026 1074 976 857 807 904 952 993 1008 1052 1034 1011 998 962 943 835 774 727 819 910 775 744 747 879 1043 1039 1019 944 900 861 644 342 332 184 281 442 408 314 317 235 227 195 194 189 268 70 3
1721 1838 1982 1771 1630 1679 1608 1642 1786 1818 1822 1800 1694 1726 1751 1836 1791 1681 1682 1593 1663 1739 1696 1679 1661 1680 1542 1490 1397 1426 1368 1316 1338 1309 1432 1315 1604 1343 1183 1150 1083 1004 951 779 621 600 781 867 814 871 961 838 808 801 822 892 890 919 837 828 802 775 847 910 907 774 701 649 632 540 507 470 322 455 547 410 295 259 244 228 215 370 489 56 1
1978 1941 2223 1812 1723 1703 1768 1790 1810 1811 1831 1804 1785 1724 1678 1686 1757 1830 1833 1792 1751 1726 1636 1694 1613 1614 1560 1458 1485 1469 1467 1460 1440 1442 1466 1445 1362 1287 1328 1363 1288 1322 932 769 851 900 894 746 766 780 791 763 738 908 839 842 955 872 862 838 868 922 830 781 725 658 615 594 626 602 567 465 607 387 405 251 211 209 206 184 180 298 526 206 1
2040 1962 1990 1946 1724 1778 1828 1725 1798 1884 1818 1790 1828 1733 1684 1675 1734 1722 1745 1834 1876 1850 1780 1729 1683 1602 1530 1600 1620 1604 1568 1564 1637 1678 1643 1418 1323 1208 1288 1131 1301 1198 1275 1187 1005 919 778 638 610 739 747 884 1020 894 740 844 916 897 919 958 891 772 710 665 678 691 620 511 600 626 623 710 680 598 378 287 254 202 200 185 208 143 237 224 2
1746 1997 2048 1972 1784 1627 1981 1894 1747 1864 1867 1700 1793 1831 1726 1783 1925 1775 1811 1941 1981 1920 1905 1819 1757 1686 1583 1707 1702 1734 1762 1750 1773 1726 1666 1491 1363 1421 1303 1242 1125 1138 1240 1300 998 823 745 699 767 891 1058 1200 974 851 788 836 1045 994 1053 1119 961 834 829 735 734 590 544 733 638 703 744 842 754 400 269 329 354 342 339 276 50 35 346 184 0
1850 2048 2053 2115 1745 1993 1965 1912 1922 1912 1886 1888 1810 1913 1930 1929 1878 1978 2006 1998 1978 1965 1892 1876 1864 1682 1693 1724 1797 1810 1776 1792 1798 1516 1495 1484 1483 1454 1473 1342 1275 1401 1383 1304 1119 885 827 839 809 1062 1330 1355 1085 1007 1056 1062 1025 1082 1064 1022 928 874 875 809 654 646 576 702 730 875 904 793 671 530 493 361 341 140 39 92 226 163 141 149 8
1907 2094 2168 2182 2110 1958 1972 2041 2138 2068 2027 1974 1868 1954 1945 1986 1998 1945 1966 1953 1891 1931 1875 1869 1912 1898 1711 1769 1788 1793 1780 1799 1794 1789 1729 1673 1277 1551 1557 1309 1311 1371 1324 1261 1263 1208 1036 943 1084 1305 1334 1112 1121 1021 1029 1098 979 897 902 956 880 960 889 967 738 556 684 738 949 1104 922 647 501 595 428 331 224 172 246 305 310 251 114 235 56
1737 2117 2188 2159 1943 1823 2033 2164 2180 2113 2086 1966 2144 2034 1997 1711 2114 2024 1976 2006 1915 1930 1879 1940 1941 1788 1803 1762 1764 1758 1759 1749 1766 1773 1732 1608 1566 1518 1484 1222 1364 1378 1167 1101 1242 1273 1274 1186 1080 1046 1045 1084 1111 1100 1040 859 848 769 838 958 963 894 1043 1008 585 683 748 632 907 1059 803 576 641 506 476 373 268 167 289 265 269 413 619 514 80
1769 1982 2328 1697 1986 1910 2082 2180 2195 2173 2148 2218 2231 2120 2118 2114 2186 2183 2161 2140 2104 2009 1931 1945 1920 1923 1829 1747 1653 1646 1716 1724 1849 1799 1709 1698 1679 1667 1571 1615 1407 1397 1426 1309 1369 1536 1471 1408 1395 1332 1216 1068 1029 1001 920 808 818 823 909 968 1149 1161 1128 1212 576 616 730 848 926 942 821 886 806 546 443 360 358 302 763 742 874 721 520 377 30
1730 1893 1940 1943 1718 1828 1968 2037 2158 2259 2232 2071 2228 2177 2143 2050 2235 2290 2175 2090 2060 2042 2068 2029 2009 1939 1962 1912 1840 1822 1741 1823 1937 1881 1775 1837 1845 1781 1815 1642 1520 1510 1229 1497 1571 1553 1382 1311 1165 1103 1013 993 970 948 843 671 675 862 981 1227 1282 1157 1219 1365 569 632 756 788 937 757 823 868 659 591 535 442 333 384 526 466 640 649 388 314 57
1813 1784 1823 1745 1597 1667 1610 1409 1466 2071 2126 2081 2122 2168 2272 2240 2295 2239 2113 2088 2097 2050 2046 1994 2043 1994 1874 1906 1886 1779 1716 1695 1705 1790 1905 1897 1948 2024 1859 1789 1766 1438 1499 1582 1513 1366 1248 1198 1023 897 910 915 920 917 891 882 828 984 1177 1323 1092 1078 1179 887 449 821 706 682 797 592 670 738 771 870 496 448 409 543 803 689 496 422 386 382 178
1737 1821 1787 1754 1469 1430 1514 1093 797 1171 1762 2147 2001 2194 2280 2264 2244 2288 2186 2158 2117 2087 2128 2140 2133 2104 2099 2022 1984 1929 1774 1659 1682 1784 1946 1928 1960 1990 1936 1809 1459 1742 1678 1544 1356 1308 1166 979 950 990 1030 941 957 938 892 880 940 1097 1162 1345 1031 906 696 844 852 878 861 841 797 797 692 778 842 796 492 399 388 465 559 278 203 132 206 255 206
1888 1726 1574 1429 1336 1494 1648 1294 995 1184 1574 2174 2133 1901 2247 2152 2218 2291 2188 2154 2207 2222 2231 2214 2188 2088 2068 2081 2053 1993 1911 1754 1694 1772 1913 1867 1894 1935 1906 1821 1754 1680 1507 1435 1344 1247 1156 1148 1082 1111 980 907 952 1054 902 906 1047 1178 1382 1372 955 780 717 789 902 929 912 845 686 576 678 684 969 708 474 453 413 311 264 294 273 256 256 244 254
1650 1609 1653 1569 1482 1492 1608 1414 1335 1847 2000 2283 2196 2012 2153 2155 2112 2224 2290 2327 2352 2390 2306 2204 2175 2148 2163 2111 2051 1959 1848 1830 1812 1814 1818 1863 1827 1834 1797 1832 1735 1632 1535 1415 1337 1209 1127 1057 909 935 984 1023 944 965 918 959 1053 1288 1350 1432 999 851 819 827 1146 891 903 936 730 680 666 1035 912 845 558 458 404 328 344 336 310 273 259 294 317
1559 1515 1705 1600 1480 1515 1627 1765 1827 2051 2208 2198 2232 2100 2162 2314 2309 2384 2384 2419 2453 2330 2183 2217 2200 2304 2220 2126 1990 1968 1923 1851 1855 1833 1819 1785 1782 1773 1814 1789 1727 1627 1598 1539 1415 1281 1098 908 948 926 924 900 856 865 955 972 1176 1211 1225 1462 1130 971 816 874 962 794 861 945 818 681 712 682 1050 710 605 534 456 420 324 272 193 303 481 333 148
1667 1658 1544 1550 1548 1676 1697 1698 1697 1921 1937 1961 2236 2085 2217 2275 2324 2331 2376 2450 2416 2302 2287 2289 2289 2269 2237 2077 2044 2182 1960 1852 1819 1755 1851 1863 1838 1522 1771 1757 1771 1661 1626 1502 1333 1268 1088 1005 1099 1039 971 899 648 616 745 1065 1158 999 1179 1445 1208 1050 1121 1108 855 745 842 900 831 707 759 994 1015 646 638 566 456 304 276 272 380 396 327 345 332
1311 1280 1375 1482 1708 1688 1827 1880 1858 1866 1847 1996 2198 2072 2120 2191 2284 2320 2360 2410 2462 2420 2360 2378 2379 2343 2268 2100 1955 2422 2516 1890 1761 1552 1920 1690 1920 1817 1788 1756 1735 1620 1632 1478 1366 1195 1085 1141 1206 1213 983 755 514 370 537 575 663 819 955 1438 1318 1458 1309 1140 932 813 809 842 708 739 682 1134 989 666 650 550 372 334 344 338 362 316 390 392 467
1117 1169 1386 1578 1742 1988 1907 1967 2132 2188 2244 2066 2104 2250 2140 2209 2004 2349 1952 2031 2424 2387 2246 2007 2027 1984 2120 2251 2446 2343 1985 1915 1726 1426 1804 1763 1733 1843 1787 1672 1599 1613 1616 1546 1288 1110 1103 1261 1249 1188 650 476 364 505 465 374 406 644 887 1279 1570 1460 1352 1162 936 781 790 864 688 761 764 915 872 591 600 565 423 322 368 388 316 375 463 436 378
1036 1187 1447 1653 1819 1728 2120 1890 2044 2112 1823 2391 2094 2192 2415 2264 1709 1600 2384 1854 1982 2141 1907 1931 1966 2237 2252 2138 2387 2311 1795 1688 1906 1815 1638 1840 1894 1895 1778 1661 1566 1570 1550 1683 1581 1414 1363 1486 1419 1037 649 338 1066 689 378 322 344 360 777 1319 1582 1450 1411 1211 992 928 748 817 705 635 883 941 726 556 566 528 466 356 239 296 462 476 437 361 329
851 1169 1256 1490 1624 1721 1846 1668 1436 1949 1654 1974 1690 1552 1564 1375 1603 1643 1796 2190 2060 1948 1948 1984 1942 2101 2002 1835 1840 1831 1818 1863 1861 1929 1667 1777 1822 1876 1870 1808 1691 1653 1722 1468 1607 1567 1309 1220 1180 957 916 873 945 760 320 310 262 522 1036 1355 1430 1448 1400 1278 964 958 844 727 598 620 893 907 877 603 522 502 452 378 298 228 453 418 356 386 465
983 1306 1557 1533 1661 1824 1749 1982 1916 2012 1700 1637 1494 1518 1668 1798 1791 1544 1694 1729 2030 2017 1969 2064 2040 1997 1909 1870 1783 1794 1711 1808 2335 2258 1701 1679 2028 2014 1810 1271 1130 1373 1482 1201 1076 1268 1184 1042 1077 923 871 888 876 940 594 314 267 354 641 1329 1412 1420 1348 1319 1190 1096 926 898 784 603 947 892 931 626 492 470 484 436 361 202 268 326 266 510 448
1076 1305 1428 1581 1677 1656 1589 1597 1708 1819 1763 1529 1590 1567 1692 1767 1899 1809 1800 2089 1995 2090 2009 2027 2016 1932 1977 1954 1858 1759 1723 1854 2385 2220 1938 1893 1873 1803 1693 1418 1364 1370 1322 994 978 924 854 879 1008 847 868 760 923 930 716 538 267 353 354 956 1408 1532 1297 1162 1160 1289 1090 933 788 674 1148 945 1081 592 450 461 484 453 418 280 236 309 519 569 443
946 1304 1466 1498 1589 1636 1501 1591 1453 1910 1516 1923 1610 1560 1616 1877 1847 1797 1968 1880 2077 1895 1931 2122 2066 2018 2021 2017 1877 1794 1807 1830 2144 2186 1942 1850 1633 1541 1380 1356 1413 1234 1300 906 996 873 897 819 818 869 948 968 776 722 629 587 609 452 369 437 1006 1345 1433 1237 1279 1299 1130 986 771 858 1256 1130 1053 614 519 454 470 427 370 306 240 208 289 514 456
1017 1386 1337 1362 1549 1515 1557 1463 1698 1635 1859 1784 1909 1779 1816 2082 1848 1803 2167 1942 1946 1875 1972 2048 2021 2131 2070 2131 2042 2047 1833 1517 2156 2050 1920 1947 1904 1454 1254 1311 1412 1331 1204 1122 845 865 912 1106 1161 1014 812 669 446 720 689 595 668 632 541 520 576 1048 1414 1314 1341 1366 1196 1112 830 1082 1366 1292 988 1227 572 521 445 290 371 222 302 249 172 349 350
1133 1207 1349 1412 1504 1561 1494 1461 1723 1670 1823 1936 1811 1844 1775 1837 1868 1931 1955 2093 2074 2032 2020 1840 1962 1991 2052 2160 2036 2045 2091 2057 2031 1993 1993 2053 1987 1776 1623 1476 1372 1464 1319 1390 934 1214 1212 1151 1157 904 857 721 802 887 820 629 720 786 650 582 603 735 1210 1410 1459 1362 1202 1166 947 1169 1376 1318 1133 944 810 550 476 416 220 241 267 300 210 95 137
1183 1037 1231 1430 1475 1551 1428 1509 1680 1662 1823 1968 1844 1802 1845 1742 1800 1933 2014 2242 2153 2080 2046 1930 1903 1889 2044 2091 2185 2156 1997 1956 1952 1846 1959 1918 1909 1876 1864 1740 1507 1375 1203 1433 1643 1469 1525 1259 1224 1038 603 811 839 945 980 590 484 631 639 631 692 631 924 1289 1316 1273 1280 1332 1209 1261 1450 1379 1009 908 880 734 462 485 277 221 285 330 258 243 108
1306 1129 1000 1242 1629 1530 1680 1629 1847 2006 1896 1811 1917 1867 1994 1804 2017 1983 1909 2280 2212 2156 2035 1975 1840 1944 2113 1968 1967 1931 1908 1961 1850 1758 1825 1820 1980 2021 1998 1636 1662 1593 1612 1696 1507 1310 1431 1515 1483 1117 862 913 982 1001 801 656 597 558 648 495 654 796 962 1219 1216 1311 1258 1369 1235 1432 1258 1460 1169 1059 996 694 692 524 535 371 364 299 254 219 208
1334 1158 1187 1351 1690 1700 1767 1884 1840 2024 2072 1875 1867 1768 1826 1936 1972 1808 1931 2330 2194 2116 1989 1748 1809 1812 1711 1657 1591 1518 1509 1763 1771 1584 1425 1484 1632 1838 1704 1741 1735 1530 1550 1575 1597 1460 1533 1384 1488 1679 1681 1326 1105 1018 949 819 770 626 652 652 736 963 1038 1271 1308 1452 1346 1465 1374 1442 1466 1160 1417 1345 1089 660 632 730 722 562 325 318 320 256 188
1361 1232 1355 1518 1751 1993 2019 2022 1906 2094 2042 1941 1559 1548 1810 1829 1803 1790 2055 2251 2161 2030 1784 1647 1649 1697 1730 1744 1631 1572 1500 1341 1248 1022 1036 990 1320 1420 1412 1566 1410 1360 1347 1433 1496 1591 1653 1659 1540 1520 1404 1296 1203 1119 828 1095 1052 1012 990 790 947 866 896 1012 1256 1272 1398 1326 1243 1426 1495 1289 1096 1236 798 807 520 632 1085 915 673 580 384 330 268
1403 1272 1590 1757 1960 2079 2093 2154 2145 1992 2050 1864 1902 1725 1794 1886 1970 1876 1939 2205 1981 2004 1848 1613 1503 1530 1542 1495 1191 1103 1216 1487 1466 948 994 887 794 1123 1183 1120 1074 994 1046 1267 1262 1388 1727 1644 1394 1269 1139 1142 1238 1209 1119 1034 1044 987 1134 921 1061 1207 1004 903 1301 1398 1389 1272 1348 1375 1369 1407 1352 1324 1181 1224 1109 764 554 1002 1102 804 633 475 400
1422 1400 1650 1748 2118 2284 2151 2160 2179 2187 2071 2059 1949 1946 1927 1917 2005 2025 1971 2007 1898 1837 1697 1613 1534 1442 1319 1204 1188 1179 1095 1114 1082 926 970 1150 1175 1108 1143 1111 947 1113 1381 1320 1352 1286 1740 1606 1396 1166 1206 1427 1356 962 1001 989 1082 1092 1312 1283 1030 972 1162 1178 1201 1201 1134 1350 1380 1379 1418 1391 1412 1362 1408 1220 1462 1038 868 926 1195 1511 1007 780 523
1492 1649 1843 1764 2021 2232 2245 2291 2281 2269 2282 2217 2226 2141 1928 1973 1990 2029 2080 2027 1928 1875 1808 1725 1574 1316 1167 1105 1046 1004 846 944 820 614 997 1002 1123 1122 1101 988 852 1356 1537 1477 1555 1597 1684 1702 1486 1398 1385 1428 1317 1194 1041 1090 914 827 1000 1217 1258 1290 1339 1331 1224 1097 1111 1095 1029 1288 1277 1177 1264 1178 1150 1412 1606 1252 820 1063 1145 1069 1259 1253 969
1620 1806 1978 2032 2048 2162 2357 2351 2423 2372 2277 2141 2026 2128 2266 2289 2100 2187 1945 1909 1898 1840 1732 1609 1500 1355 1247 1110 1063 1014 762 847 784 794 779 1154 1137 1064 1053 875 1078 1283 1516 1418 1513 1496 1844 1716 1520 1368 1344 1448 1153 1016 913 786 730 784 917 1086 1074 1210 1244 1433 1151 1194 1085 1303 1159 1138 1040 979 974 1015 1428 1136 1400 1430 1270 789 996 1020 1079 1058 1418
1794 1998 2048 1982 2160 2189 2443 2483 2532 2438 2188 2166 2260 2460 2470 2261 2100 2030 1986 2019 2008 1810 1484 1315 1132 1084 1066 1020 1004 940 906 740 835 826 1088 935 1023 1129 978 785 782 1211 1256 1402 1432 1232 1436 1808 1651 1434 1297 1299 1163 828 746 719 776 865 774 949 983 1036 957 1150 1144 1096 1308 1104 1090 1131 1044 924 800 614 824 916 951 1111 1261 1094 529 706 980 1068 1072
1980 1890 2008 2196 2287 2272 2351 2526 2383 2305 2238 2264 2474 2431 2264 2188 2090 2018 2055 1829 1439 1394 1201 1088 1024 947 942 1017 1029 934 866 841 870 1016 914 860 991 1163 1082 888 874 1190 997 1042 1274 1316 1306 1510 1608 1046 1237 1401 1251 855 762 826 915 816 595 523 786 1025 1061 855 832 951 1032 1116 1116 951 823 908 886 775 919 939 914 962 1222 1135 975 1343 1236 845 927
2010 1840 1819 1924 2146 2515 2644 2561 2413 2497 2512 2555 2396 2228 2039 1922 1792 1864 1592 1249 1186 1008 953 961 885 979 1001 1068 1012 919 898 877 852 919 948 1065 1071 1100 1088 952 999 986 1171 1190 1186 1220 1346 1454 1309 1037 1011 785 707 719 701 710 923 522 435 443 580 780 851 750 858 710 621 836 966 930 989 810 796 867 817 1044 1193 1280 1064 814 795 1147 1140 1005 697
1902 1969 2037 2164 2378 2462 2454 2514 2544 2589 2588 2554 2432 2121 1854 1696 1630 1646 1818 1318 1094 925 936 921 987 1015 1056 989 945 852 912 819 766 776 848 926 874 955 980 990 1143 1166 1102 1118 1030 1032 1175 1316 1161 1123 1135 969 724 724 520 804 635 399 350 386 563 572 602 517 847 735 593 550 660 872 787 687 641 1073 1064 1398 1289 1326 1081 852 833 732 636 927 861
1930 1983 1982 2079 2351 2410 2643 2532 2567 2631 2586 2451 2145 1818 1762 1788 1860 1756 1611 1342 1293 1287 1201 1100 983 801 760 759 960 1019 985 1026 721 717 869 972 1033 1002 1035 1143 1098 1098 1013 896 870 767 856 860 850 756 862 1121 728 603 575 849 574 726 576 448 470 516 483 674 630 556 550 563 752 854 742 539 655 873 907 1037 1013 921 945 945 767 773 621 561 397
1715 1791 1880 1925 2106 2328 2559 2530 2639 2468 2358 2202 1843 1812 1581 1584 1580 1373 1406 1046 861 977 1068 968 792 725 698 750 932 1271 990 1037 895 751 792 728 834 808 753 772 830 762 750 858 835 860 861 951 1085 940 595 841 649 574 536 668 843 611 716 596 576 654 528 740 678 431 337 842 830 512 393 346 9 222 463 605 653 733 621 615 623 550 530 566 619
1667 1616 1736 1673 1726 1950 2297 2555 2570 2475 2286 2055 1810 1618 1528 1493 1199 1011 859 1057 882 785 775 730 628 476 299 275 302 836 1116 1144 753 776 788 763 810 871 846 808 780 832 829 820 730 714 802 911 1031 1073 935 625 587 563 409 492 532 524 515 832 624 538 612 472 577 476 344 465 529 458 355 8 167 224 326 228 359 319 364 617 706 647 506 324 134
1628 1640 1740 1694 1682 1762 1833 2039 2304 2329 2181 1991 1707 1469 1382 1343 967 718 679 685 750 787 623 527 398 116 25 133 167 433 1228 1116 1068 954 929 762 799 892 846 675 727 704 764 685 742 703 774 868 989 924 1084 1177 687 573 566 369 551 897 944 282 159 267 346 522 398 366 414 468 424 408 423 251 246 226 142 94 182 256 387 292 414 341 315 262 203
1674 1734 1816 1791 1727 1654 1711 1934 2037 2150 2074 1846 1576 1328 1255 1115 898 854 835 713 580 675 647 330 160 186 59 0 3 186 1031 1308 1179 1156 1128 972 1013 860 734 786 794 668 738 776 590 648 629 749 799 728 737 985 928 544 576 297 324 606 758 1385 1366 908 337 476 519 14 322 386 332 36 0 0 0 0 0 0 0 0 0 0 0 0 8 65 95
1682 1769 1879 1846 1730 1475 1516 1730 1879 2029 2002 1782 1449 1215 1274 1364 1597 1666 1628 1350 970 434 245 294 302 19 0 0 4 37 438 1194 1260 1228 1179 1085 1092 838 757 834 754 643 657 701 661 781 660 725 680 650 1036 742 616 765 841 425 270 350 463 728 683 685 937 332 398 384 188 3 0 0 0 0 0 0 0 0 0 0 0 0 0 0 0 0 3
1618 1736 1852 1775 1733 1532 1287 1425 1673 1822 1878 1725 1312 1246 1380 1472 1624 1461 1306 1168 1054 392 262 76 1 0 0 0 0 2 132 508 930 864 1036 1088 1070 896 709 632 686 598 674 662 573 643 766 697 660 902 728 758 807 566 692 667 820 486 487 512 586 563 685 764 508 496 15 18 24 14 0 0 0 0 0 0 0 0 0 0 0 0 0 0 0
1491 1551 1573 1618 1715 1704 1406 1292 1396 1466 1593 1538 1182 1127 1267 1351 1360 1147 834 498 478 277 77 0 0 0 0 0 0 0 20 19 482 334 352 618 802 1019 910 852 696 750 718 697 699 666 806 763 670 667 704 762 750 538 659 572 972 716 573 488 578 584 640 759 594 347 8 14 0 0 0 0 0 0 0 0 0 0 0 0 0 0 0 0 0
1387 1443 1486 1525 1623 1756 1638 1362 1277 1251 1355 1265 1054 1026 948 1017 1091 1062 874 466 357 140 25 0 0 0 0 0 9 84 78 93 6 2 72 125 472 770 986 972 694 643 602 652 455 480 547 634 668 746 616 760 635 649 758 797 865 944 901 864 868 585 677 625 612 226 71 20 0 0 0 0 0 0 0 0 0 0 0 0 0 0 0 0 0
1439 1482 1497 1509 1534 1633 1613 1467 1265 1188 1192 1078 1002 907 782 924 1031 978 825 566 463 224 13 0 0 0 0 0 14 16 39 41 23 8 13 72 283 328 519 510 496 362 243 354 580 471 339 368 304 415 521 552 473 324 165 270 277 309 448 800 822 738 538 548 296 188 7 0 0 0 0 0 0 0 0 0 0 0 0 0 0 0 0 0 0
Wind_Speed
29 32 31 35 33 34 34 34 36 40 42 41 41 41 40 34 32 33 33 33 34 33 34 34 33 31 30 30 30 30 31 32 33 34 34 34 33 32 30 29 29 29 29 28 28 26 24 20 18 18 16 14 14 14 14 15 15 16 18 16 17 16 18 18 18 18 18 17 17 17 17 17 16 14 14 13 13 13 12 12 12 nan 11 nan nan
33 32 31 34 34 35 36 37 38 39 43 43 41 40 38 36 34 32 32 32 34 34 34 34 33 32 31 30 30 30 31 32 33 34 34 34 33 32 30 29 28 27 27 27 26 26 23 20 18 18 16 14 14 14 15 16 17 17 17 17 17 19 18 19 18 17 18 18 18 17 17 17 16 15 14 nan nan nan 12 11 13 nan 11 nan nan
33 32 31 36 36 36 38 39 40 40 42 43 42 41 40 37 35 31 31 32 32 35 34 33 32 31 30 30 29 30 31 32 33 34 34 34 33 32 31 29 28 27 27 27 26 24 23 20 18 17 17 15 14 14 15 16 17 17 17 17 17 18 18 17 17 17 18 18 18 18 18 17 16 15 14 13 nan nan nan 14 nan nan nan nan nan
34 31 32 36 38 38 38 41 42 43 43 44 43 42 42 40 36 30 30 31 33 36 35 34 32 30 29 29 29 31 31 32 33 33 34 34 34 33 31 29 28 28 27 26 24 23 22 20 18 18 17 15 14 14 15 16 18 17 17 17 18 18 15 14 14 15 16 16 17 15 13 13 13 14 14 15 14 14 13 nan 16 17 16 nan nan
34 33 34 36 38 39 40 43 43 45 44 46 47 46 43 40 36 31 30 31 35 36 35 33 32 30 29 29 29 30 30 31 32 33 33 33 33 33 31 30 29 29 28 26 24 22 21 20 17 17 17 15 13 14 16 18 18 18 18 18 18 17 16 15 15 15 16 16 13 12 12 13 12 13 13 14 14 14 14 14 15 16 17 nan nan
35 34 36 37 38 41 42 44 46 47 47 47 48 47 43 40 37 33 32 35 38 37 35 34 32 30 30 29 30 30 29 30 31 31 30 30 29 31 32 31 29 28 28 26 24 22 21 19 17 17 17 15 13 14 17 18 19 19 18 17 17 17 16 15 14 14 14 14 11 13 12 11 11 11 13 13 13 13 13 14 15 16 17 nan nan
36 34 36 37 37 40 43 44 47 48 48 49 49 48 44 40 37 35 35 38 39 37 35 34 32 31 30 30 30 29 30 30 31 31 30 29 29 27 28 30 31 29 27 27 25 24 22 20 18 16 16 15 13 14 17 19 19 19 18 18 17 17 16 15 15 13 11 11 13 13 12 12 10 9 13 12 12 13 14 16 16 17 17 17 nan
35 34 35 36 38 42 43 45 47 46 48 48 48 48 46 42 39 37 38 39 38 35 34 33 32 32 31 30 29 28 29 30 30 30 30 30 29 27 25 26 29 28 27 26 25 24 23 22 19 16 16 16 15 15 17 19 20 18 18 18 18 18 17 15 14 12 7 12 12 12 12 11 11 10 11 12 12 12 13 14 15 15 17 18 nan
36 37 36 37 40 46 45 45 45 46 47 47 47 47 45 43 41 38 37 37 36 34 33 33 32 31 29 28 28 28 28 29 30 29 29 30 28 27 24 25 28 27 26 25 24 23 23 22 20 17 16 17 16 16 17 19 18 17 16 15 16 16 15 15 13 11 12 12 13 13 13 12 11 10 11 11 12 12 12 12 nan nan 18 17 nan
37 36 37 37 41 46 46 46 46 47 46 46 46 44 42 42 40 38 36 37 37 35 33 33 31 30 29 28 28 28 28 28 28 29 29 28 28 24 24 25 26 26 27 26 24 23 23 22 20 18 17 17 16 15 15 15 14 15 13 13 13 15 15 14 13 10 12 12 13 13 12 11 12 11 12 12 12 12 nan nan 12 13 14 18 nan
38 37 37 40 45 47 47 47 47 48 49 47 44 40 38 40 41 39 38 38 39 36 34 32 31 30 28 28 28 28 28 27 26 27 28 27 25 26 26 25 25 26 26 26 26 24 23 21 21 20 20 19 17 14 14 15 14 13 14 13 12 13 15 15 11 14 13 13 14 14 14 11 11 11 12 13 13 12 12 13 13 13 14 17 nan
39 39 40 41 47 48 48 48 47 47 46 42 40 39 38 38 39 39 39 39 39 36 32 29 28 29 28 28 28 28 28 27 26 27 27 27 26 27 25 24 25 25 25 25 25 25 24 22 21 20 19 18 16 15 14 15 15 14 14 14 12 11 11 13 11 14 14 13 14 13 13 11 12 13 15 13 12 13 13 12 12 13 15 17 nan
41 42 41 43 45 47 48 47 46 46 44 40 40 41 40 39 36 34 36 37 36 33 29 27 27 27 28 28 28 28 28 28 27 28 28 27 27 27 25 25 25 25 25 25 25 26 25 23 21 20 19 18 17 17 17 15 15 17 15 13 10 9 9 13 12 14 14 14 14 14 14 12 12 15 14 14 12 12 14 13 14 14 14 15 nan
43 44 44 45 45 48 47 47 45 44 45 44 41 37 40 40 35 31 33 34 32 30 27 27 27 28 28 27 27 27 27 28 28 29 29 28 28 27 26 25 24 24 24 25 25 25 25 24 21 20 19 19 19 18 18 16 14 16 15 13 10 8 11 13 12 14 15 15 14 15 14 13 13 13 14 14 13 12 13 13 14 15 13 13 nan
44 45 46 46 45 44 46 45 41 42 42 40 37 34 34 37 35 31 31 32 30 28 27 28 29 30 30 29 27 27 28 29 29 29 29 29 28 28 27 26 25 25 24 25 25 26 26 25 24 22 21 20 18 17 17 16 14 17 16 16 15 13 14 13 13 15 15 15 16 15 15 14 15 11 14 14 13 14 14 12 12 13 13 13 14
45 46 45 42 38 37 36 39 39 33 30 34 32 30 31 34 34 34 33 31 29 29 28 29 30 30 29 28 27 27 29 30 30 30 29 28 28 28 27 26 26 26 26 25 25 26 26 27 26 24 22 21 19 17 16 16 16 18 17 19 18 16 14 12 15 16 15 15 16 16 15 16 12 12 14 14 13 15 14 11 11 11 11 12 13
46 45 44 42 39 38 38 35 32 34 33 33 33 31 30 32 35 36 34 30 28 27 28 29 30 30 30 28 27 28 29 31 31 30 29 28 27 27 27 26 27 26 26 26 26 26 26 27 26 25 23 22 20 18 16 16 18 20 18 19 20 19 18 14 16 16 16 16 16 16 16 16 14 11 14 14 14 14 13 13 11 11 11 11 12
47 46 43 42 40 38 37 35 32 30 28 31 34 32 29 29 32 33 33 30 26 27 28 29 30 30 30 30 29 30 31 31 31 31 29 28 28 27 26 26 26 27 27 27 27 26 26 26 27 26 25 24 23 22 20 19 20 21 19 19 22 22 21 17 17 17 18 17 17 16 16 18 15 14 16 15 15 14 14 14 12 11 11 12 12
46 46 43 41 38 36 34 31 28 27 27 24 25 27 25 27 30 30 30 28 25 26 27 29 30 30 31 31 31 32 32 32 32 30 29 29 29 27 26 26 27 27 26 27 27 27 26 26 27 28 27 27 26 25 24 23 23 22 21 20 23 23 23 18 18 18 19 18 18 17 18 17 13 16 17 16 15 15 15 15 13 13 12 12 11
42 41 39 36 35 33 30 28 25 25 25 22 21 23 25 29 29 27 26 24 24 26 27 28 31 32 32 32 31 31 32 31 32 30 30 30 28 26 27 26 26 26 26 26 27 27 26 27 27 27 29 28 27 26 27 27 27 26 24 23 23 24 20 19 20 19 19 20 19 19 22 15 15 17 17 17 16 15 16 15 15 13 13 12 12
39 38 35 32 31 30 28 25 24 24 24 24 21 21 21 26 26 26 24 21 24 26 27 29 31 33 32 32 31 29 29 29 29 28 30 28 27 27 26 26 26 26 26 26 27 26 27 27 27 27 28 27 26 26 27 28 29 29 27 25 25 21 22 21 20 20 19 20 20 21 22 18 15 18 18 17 17 16 17 16 15 14 14 13 14
37 34 32 31 29 27 26 25 24 22 22 21 20 18 19 21 23 25 23 23 24 25 25 28 30 31 34 30 29 29 29 28 28 29 27 28 26 26 25 25 25 25 26 26 26 25 26 27 27 28 28 27 24 23 23 26 30 30 29 30 24 24 24 22 21 20 20 20 20 25 21 21 17 19 19 19 18 17 17 16 16 15 15 15 15
33 31 28 28 25 24 23 24 21 19 20 19 19 20 19 18 19 22 22 24 23 24 26 29 29 31 30 30 29 29 28 28 28 27 26 26 26 25 25 25 24 25 25 26 26 25 25 27 29 29 26 24 22 23 23 25 27 29 29 26 26 25 25 23 22 21 21 22 21 26 22 21 19 21 21 20 20 18 16 17 18 17 17 16 16
30 28 25 22 22 21 21 21 18 18 18 19 20 19 18 17 17 19 21 20 21 24 27 27 28 29 29 29 28 29 28 27 29 30 28 25 25 25 25 25 25 25 25 24 24 25 26 28 29 26 22 21 22 21 22 24 26 27 28 27 26 26 25 23 22 22 22 23 23 26 23 22 20 22 22 22 21 20 17 19 20 20 18 18 18
24 23 19 19 20 19 18 19 16 16 17 17 19 16 18 17 18 18 20 21 23 25 24 24 26 28 28 28 28 29 28 27 27 25 23 23 23 23 22 22 22 23 22 22 21 23 21 23 23 22 21 20 20 21 21 23 25 26 27 27 27 26 24 24 23 22 23 23 25 24 24 23 22 23 24 23 23 21 20 20 20 20 21 21 19
20 18 18 18 18 16 16 18 17 15 15 16 17 19 20 18 18 19 21 22 22 21 21 23 25 26 26 28 29 28 28 27 25 24 23 22 21 21 21 21 21 21 20 21 21 21 22 22 22 20 19 18 18 20 21 22 24 25 26 27 26 25 24 24 24 23 24 24 26 24 25 25 25 24 24 25 24 22 23 22 20 23 25 23 20
17 17 16 16 16 15 13 15 16 13 14 17 19 19 18 19 19 20 21 19 19 20 21 23 24 24 25 27 28 28 27 26 24 23 22 21 21 21 21 20 19 19 19 20 21 21 21 22 21 20 18 16 17 19 20 21 23 24 25 26 26 25 25 24 24 24 24 24 26 25 26 26 27 25 26 26 25 23 23 23 22 23 24 22 21
16 17 16 15 15 15 13 14 14 14 15 17 18 18 17 19 19 19 17 17 17 19 21 22 23 23 24 25 26 26 25 24 23 22 22 21 21 21 21 20 18 17 18 19 19 19 20 21 20 19 18 18 18 19 20 21 21 22 23 25 25 25 24 23 24 24 24 24 25 25 24 25 26 26 28 27 27 25 24 24 24 24 25 23 23
17 17 15 15 15 14 13 13 13 14 15 15 15 17 17 17 16 14 14 14 16 18 20 21 22 22 22 23 23 22 22 22 21 20 20 20 21 20 19 18 17 17 17 18 17 18 19 20 20 20 20 19 19 20 20 20 20 21 22 23 24 24 23 22 23 24 24 24 23 25 22 24 24 26 28 28 28 27 26 25 26 26 26 nan 23
15 15 15 14 13 12 12 12 12 13 14 13 13 14 13 11 10 11 12 13 14 16 19 19 20 20 20 19 19 18 19 19 19 18 18 19 19 18 17 16 15 16 16 17 17 16 17 18 19 19 19 19 19 20 19 19 19 21 21 22 22 23 23 22 22 23 24 23 23 24 23 23 23 24 28 28 29 30 30 27 27 28 27 26 24
14 14 14 13 13 11 11 11 11 12 12 10 8 6 6 6 8 10 11 12 16 16 18 17 17 18 18 16 16 17 17 17 17 17 17 17 16 15 14 15 15 17 17 17 17 16 16 17 17 17 18 18 18 19 18 18 19 21 21 21 22 22 23 23 23 23 23 23 23 23 25 25 25 26 28 28 31 32 31 30 27 29 28 26 26
14 14 13 12 12 11 11 11 11 9 6 5 5 5 5 6 7 9 10 12 15 16 16 15 16 17 18 15 15 14 14 14 17 19 17 17 15 12 13 15 16 17 16 16 16 16 16 17 17 17 18 17 17 19 19 19 20 20 21 21 21 21 21 22 22 23 23 24 24 25 25 26 28 27 28 28 31 34 31 32 31 30 29 27 26
11 13 12 12 13 11 9 9 8 6 7 7 7 7 7 8 9 10 12 13 14 15 16 17 17 20 15 9 12 11 12 14 17 18 21 14 12 11 14 15 16 16 16 15 15 16 17 17 17 16 16 16 17 20 20 20 20 20 20 21 20 21 22 21 21 22 23 24 25 25 25 25 25 28 26 26 29 32 33 32 32 32 31 30 28
11 11 12 12 11 9 9 9 7 8 10 10 9 9 10 11 11 12 12 13 13 14 16 18 15 17 11 7 10 11 8 11 11 16 22 16 10 12 13 13 14 16 17 16 16 17 18 18 18 17 18 17 19 20 19 19 19 19 21 22 22 22 21 20 20 22 23 23 25 25 25 25 26 25 26 28 29 30 32 32 32 32 33 32 30
10 11 12 12 11 11 11 10 10 11 13 12 10 10 12 13 13 12 12 12 13 12 16 17 13 13 14 14 9 10 12 12 9 14 19 12 10 11 11 13 15 16 16 17 18 19 19 19 19 18 19 20 21 22 21 19 18 20 21 22 22 21 20 19 20 21 22 23 23 24 25 26 28 27 27 26 30 31 31 31 31 32 31 32 32
13 13 12 12 13 14 15 14 15 16 16 14 10 11 14 14 13 11 10 11 11 11 13 15 13 13 11 14 15 12 13 12 12 17 14 12 12 12 13 14 15 17 18 18 18 20 21 21 20 19 19 20 21 22 20 20 19 20 21 22 21 20 19 20 21 21 21 21 22 24 25 26 27 29 28 28 28 31 32 30 30 30 31 30 30
14 15 15 14 14 15 15 15 17 19 17 15 14 16 18 17 13 10 10 11 11 11 12 11 12 12 10 8 9 10 12 11 15 19 14 12 13 13 13 15 16 18 19 19 19 20 21 22 22 21 20 21 22 22 20 18 20 21 21 23 23 23 22 22 22 21 22 23 23 23 25 27 29 29 28 28 27 27 32 31 30 30 29 30 29
14 14 14 14 14 13 11 11 14 17 18 18 19 21 21 18 14 12 12 12 13 12 11 11 11 10 10 10 10 10 11 11 14 17 13 13 13 13 15 17 17 17 18 18 19 19 19 21 23 23 21 21 22 22 20 18 20 20 21 23 23 23 22 22 21 22 22 23 22 23 24 27 29 28 25 25 26 27 27 30 30 28 28 29 30
11 10 10 10 11 12 10 10 12 15 18 20 21 22 22 19 16 14 13 13 13 13 12 13 12 12 11 10 10 10 11 12 13 17 14 12 13 14 16 18 18 18 18 17 18 19 19 19 22 23 23 22 23 22 20 18 21 21 20 21 21 21 19 18 17 19 20 22 22 23 24 28 26 22 22 22 25 26 28 29 29 28 30 33 29
11 9 10 11 10 11 10 10 11 13 15 17 18 19 19 17 15 13 12 12 13 14 14 14 13 12 11 10 11 11 13 14 15 16 15 13 14 15 16 18 18 17 17 16 18 19 19 19 21 22 24 24 24 23 20 19 21 22 21 20 21 21 20 18 17 18 20 21 21 22 25 25 24 21 20 21 22 24 26 27 27 27 28 33 32
12 9 10 10 9 10 10 11 12 14 14 15 16 18 18 17 14 12 11 12 13 15 15 14 14 13 11 11 12 12 13 15 16 14 15 15 15 17 17 20 17 16 17 18 19 21 21 20 22 22 23 24 24 23 21 19 22 22 21 21 21 21 21 20 19 20 22 22 22 21 22 22 23 22 20 20 20 22 22 22 24 24 25 27 29
10 9 9 8 8 9 9 10 13 14 14 15 17 18 17 16 15 14 13 14 14 15 15 15 15 14 13 12 12 12 13 14 16 15 16 14 14 16 17 20 19 17 20 20 21 22 22 21 22 24 22 23 25 24 23 22 21 20 21 21 20 20 21 21 21 22 22 22 22 23 24 23 24 23 22 22 23 23 24 23 22 21 20 22 24
10 8 9 10 10 10 10 13 14 14 14 15 16 17 17 17 15 16 15 16 14 14 16 17 17 15 14 13 12 12 13 14 15 15 15 14 14 15 17 19 20 21 20 21 20 21 21 21 21 23 25 25 28 26 24 19 22 20 20 19 19 17 19 20 22 23 22 22 22 24 24 24 nan 23 22 21 22 22 24 25 24 22 21 21 21
9 9 10 10 12 12 14 16 16 15 14 15 16 20 20 18 18 18 16 16 17 17 19 20 20 17 15 13 12 11 12 14 14 14 14 15 16 16 17 18 19 20 20 20 20 20 21 21 22 23 25 26 26 26 24 22 21 23 20 17 20 16 17 18 19 22 21 22 23 23 23 nan 23 23 22 22 22 21 22 24 25 25 24 24 23
8 8 9 10 11 13 14 15 15 14 15 16 18 21 21 20 20 20 20 20 19 18 19 20 20 18 nan 13 13 11 10 13 15 15 15 15 16 17 18 20 20 20 20 20 20 21 21 20 21 23 23 24 27 28 25 25 22 18 20 22 21 18 19 21 19 22 20 22 24 23 24 23 23 23 23 nan 23 23 22 24 24 24 24 23 24
6 6 8 9 11 12 13 13 13 14 15 16 19 19 19 20 20 20 20 19 19 18 19 20 19 18 nan nan nan 13 11 13 16 18 17 16 16 17 18 19 20 20 20 20 20 21 21 21 21 21 24 26 29 29 27 26 23 22 20 19 20 20 22 23 19 nan 24 24 24 nan nan nan nan nan nan nan nan nan nan nan nan nan nan nan nan
6 7 8 9 10 12 12 12 13 13 14 16 18 19 19 17 17 18 19 20 20 17 16 16 18 nan nan nan nan nan 16 18 20 21 21 19 18 17 18 19 20 20 20 20 21 20 21 21 22 22 23 26 26 28 27 29 28 25 24 23 23 22 25 26 24 28 28 nan nan nan nan nan nan nan nan nan nan nan nan nan nan nan nan nan nan
8 9 9 9 11 12 12 12 12 13 14 16 19 18 19 17 17 18 20 20 20 21 19 nan nan nan nan nan nan nan 21 23 24 23 22 21 20 19 18 19 20 21 21 22 23 23 23 24 23 24 25 25 26 27 27 28 27 28 27 27 26 26 25 25 26 25 nan nan nan nan nan nan nan nan nan nan nan nan nan nan nan nan nan nan nan
9 9 11 11 12 13 12 12 12 14 16 18 19 18 18 18 18 20 22 22 24 23 nan nan nan nan nan nan nan nan nan nan 27 26 23 21 20 20 19 20 21 22 22 24 24 24 25 25 24 24 24 26 25 27 27 27 27 29 28 28 27 26 25 24 24 22 nan nan nan nan nan nan nan nan nan nan nan nan nan nan nan nan nan nan nan
12 13 15 15 14 13 13 12 13 15 17 18 18 19 18 19 20 22 27 27 26 25 nan nan nan nan nan nan nan nan nan nan nan nan nan 22 20 19 19 20 22 23 24 25 26 26 25 25 25 26 26 26 26 26 26 27 28 28 26 26 26 26 25 25 24 25 nan nan nan nan nan nan nan nan nan nan nan nan nan nan nan nan nan nan nan
16 15 14 14 15 14 14 14 16 17 18 19 19 20 21 21 22 26 30 30 28 29 nan nan nan nan nan nan nan nan nan nan nan nan nan nan 19 18 19 20 22 24 24 25 26 27 27 27 27 27 27 27 28 29 30 29 29 28 26 23 24 23 23 25 26 26 nan nan nan nan nan nan nan nan nan nan nan nan nan nan nan nan nan nan nan
Wind_Direction
299 298 297 297 297 297 298 299 298 298 298 300 303 308 311 309 307 307 307 309 311 310 310 309 309 308 309 308 308 308 308 308 308 308 309 310 310 311 312 314 312 310 310 310 307 307 307 305 302 299 298 294 293 290 294 296 287 282 289 293 293 293 290 286 283 280 278 278 279 280 279 277 280 280 270 266 254 249 252 248 243 nan 239 nan nan
298 296 293 294 295 295 296 296 295 294 295 298 300 304 308 311 310 307 307 309 312 311 311 309 306 305 305 305 305 305 307 309 309 308 309 309 310 309 309 310 310 309 308 306 305 305 305 305 303 301 298 296 294 293 291 289 284 283 290 295 291 291 291 294 289 283 276 276 278 280 281 282 282 280 280 nan nan nan 247 238 237 nan 237 nan nan
291 293 291 293 294 293 293 293 292 292 294 297 300 302 303 307 308 306 307 309 311 311 308 305 303 302 301 301 302 304 307 308 309 309 310 310 309 308 307 307 307 306 305 305 304 304 303 303 301 300 297 296 294 293 289 288 290 285 288 294 292 282 282 281 280 280 281 281 280 280 281 281 282 286 281 275 nan nan nan 239 nan nan nan nan nan
291 288 289 289 291 289 289 290 291 293 296 298 300 301 300 301 304 302 303 305 306 306 304 304 302 300 299 300 303 305 306 308 310 311 311 311 310 308 306 303 303 302 301 301 296 299 300 302 300 296 296 294 292 290 291 293 288 287 290 294 294 284 272 277 280 275 266 266 280 290 285 285 291 289 286 283 277 263 251 nan 241 242 253 nan nan
285 285 285 286 287 287 289 290 292 296 297 299 302 304 301 296 295 296 296 296 300 302 299 298 296 294 295 298 301 304 307 310 312 313 313 311 308 308 305 303 302 301 301 299 297 295 294 296 295 294 294 292 288 290 289 291 291 291 293 297 295 290 282 285 280 272 264 264 269 281 281 287 287 283 279 276 269 264 258 250 247 246 256 nan nan
280 281 283 285 287 289 290 292 294 297 299 302 304 305 303 296 291 290 290 293 297 297 295 295 293 293 295 298 300 302 305 308 311 311 310 308 306 308 306 303 302 300 299 298 295 293 291 291 291 291 291 289 287 289 289 289 290 288 290 291 290 291 289 287 280 270 265 263 270 273 281 284 283 288 284 285 280 273 265 255 248 251 257 nan nan
280 280 283 285 286 289 291 292 294 297 301 304 306 305 301 296 291 289 289 292 296 295 293 294 293 294 296 297 299 302 305 307 308 307 305 304 304 304 302 303 302 301 299 297 295 292 289 286 286 286 287 286 283 286 288 288 287 287 292 291 290 288 287 285 283 276 270 290 271 271 272 280 285 288 294 292 283 277 270 257 251 249 250 248 nan
277 279 281 284 285 288 288 291 294 297 301 303 307 306 302 296 291 287 287 290 292 291 290 291 291 292 294 296 298 301 303 304 306 307 306 305 305 303 304 301 300 300 298 296 294 292 290 287 284 283 285 283 282 283 286 284 285 292 293 282 279 284 286 288 285 279 278 283 279 272 274 276 278 285 301 290 284 275 267 264 258 252 253 253 nan
278 280 281 284 285 289 288 292 295 298 301 303 306 307 303 298 292 287 286 286 285 284 285 287 287 289 292 294 297 299 300 301 303 304 304 304 307 308 306 304 298 296 292 290 289 289 287 284 281 281 284 286 283 280 281 280 280 289 290 280 279 279 282 286 282 296 300 288 285 279 277 278 279 281 290 287 284 281 278 272 nan nan 255 256 nan
280 281 284 285 288 290 292 294 297 300 300 299 304 306 302 299 293 287 285 282 280 280 281 283 284 286 289 293 294 294 296 298 300 302 303 305 304 301 298 298 297 293 291 289 287 283 283 282 280 279 280 280 277 273 272 275 277 278 280 278 283 279 274 284 289 291 291 294 290 287 275 273 279 282 293 290 286 279 nan nan 250 256 254 257 nan
283 283 284 286 292 293 295 296 298 300 299 295 300 303 299 297 293 287 283 282 282 281 278 280 282 283 286 288 290 292 294 296 298 300 301 301 300 294 296 297 293 292 289 287 285 282 280 278 276 274 272 273 270 267 270 274 269 267 267 268 267 270 275 284 309 297 295 294 293 293 289 280 277 277 287 289 293 292 285 270 266 259 258 261 nan
285 285 287 290 294 296 296 297 297 300 302 300 303 302 297 294 292 288 284 283 283 280 276 275 276 281 284 286 288 291 292 294 295 298 299 299 298 297 293 295 292 287 282 281 280 279 277 274 274 269 267 268 269 270 265 265 264 258 251 251 253 263 274 287 299 293 296 294 292 294 296 296 287 289 297 297 296 290 288 285 276 265 254 256 nan
289 290 292 295 296 297 297 297 297 298 302 302 305 302 295 291 291 288 282 280 278 275 275 275 276 278 282 284 287 290 290 292 292 295 297 297 297 297 297 293 290 285 281 280 280 277 276 272 265 264 263 262 257 254 252 250 254 252 249 247 247 258 284 296 296 297 294 291 293 296 294 293 294 300 300 297 293 291 279 280 278 267 261 258 nan
293 295 295 298 298 300 298 297 295 295 294 293 295 293 291 287 284 283 280 278 274 271 272 273 275 277 277 280 285 287 287 288 290 293 296 296 296 295 293 293 290 285 280 279 278 275 271 267 259 253 251 250 248 248 252 248 248 254 256 252 257 274 284 295 290 291 291 290 290 290 290 295 298 305 302 298 298 295 290 286 277 270 263 259 nan
294 294 296 297 299 300 298 296 293 295 293 289 287 284 284 281 275 277 279 277 272 269 271 273 273 275 278 282 283 285 287 288 289 292 294 294 295 294 294 293 290 286 280 276 274 273 269 262 254 247 247 247 245 244 251 254 244 251 253 258 266 270 285 279 286 286 284 286 287 291 290 291 298 317 301 302 304 292 287 287 284 277 270 261 256
294 294 294 294 296 297 297 292 289 286 289 289 288 282 279 279 275 275 276 272 266 264 267 269 271 273 276 279 282 285 286 287 288 290 290 292 293 293 293 290 288 283 280 276 273 270 265 259 253 246 242 242 241 240 242 249 249 247 248 258 268 270 272 262 276 278 277 278 280 282 284 285 290 300 305 302 301 297 291 288 287 284 277 266 259
293 295 296 296 299 299 297 295 299 305 299 293 290 287 282 282 278 278 275 266 262 264 268 269 270 272 276 279 280 280 282 286 287 288 288 290 292 291 290 289 286 283 281 278 273 269 263 257 252 246 241 239 237 236 235 238 240 241 243 258 268 268 268 264 269 272 271 270 270 274 277 287 289 287 293 297 299 295 290 285 283 282 281 275 262
296 299 300 298 298 297 295 296 298 298 296 296 292 287 280 276 276 276 269 263 265 268 269 267 268 271 276 277 278 280 282 283 285 287 289 290 291 291 289 287 285 282 280 277 272 267 262 256 250 246 240 237 236 232 229 229 234 238 239 254 265 265 265 260 263 264 269 270 267 268 269 256 273 288 294 295 295 296 293 290 289 283 279 278 270
300 302 300 300 298 295 295 298 297 290 286 290 292 287 281 281 278 271 266 268 271 270 268 267 270 271 274 276 279 281 283 284 286 290 291 292 292 292 288 286 284 282 278 276 272 266 261 255 249 244 242 237 233 230 227 226 229 234 239 254 263 262 261 259 258 260 265 267 264 264 261 246 268 281 286 289 293 295 293 292 291 283 280 278 273
299 300 300 298 298 296 294 294 294 285 276 279 290 297 299 291 282 271 267 268 267 267 266 270 275 275 275 277 279 282 285 286 289 292 294 293 292 291 290 286 283 280 277 275 272 268 263 257 251 246 244 239 233 227 226 227 231 233 236 252 262 263 256 252 253 254 256 258 261 262 255 245 262 277 281 284 287 288 290 292 290 294 287 279 277
300 302 303 302 300 299 300 296 298 292 279 274 279 301 300 288 279 276 274 268 265 271 274 280 283 282 279 275 277 279 280 285 291 291 294 293 291 292 290 286 282 279 276 274 271 269 265 260 255 247 242 240 238 233 229 228 232 234 238 249 260 253 250 250 251 250 248 253 259 259 249 248 255 266 271 275 277 278 282 287 291 290 285 283 278
302 303 305 305 304 301 303 304 295 291 282 277 278 286 293 286 278 271 268 271 273 277 283 289 290 286 280 279 278 279 282 285 288 291 291 295 294 290 288 285 282 279 275 273 270 268 267 264 260 251 240 236 235 233 233 235 236 236 242 247 252 249 249 250 249 247 246 246 249 253 248 249 255 263 265 267 269 274 279 284 284 281 282 280 274
301 304 307 309 306 302 299 298 293 295 293 283 279 276 275 271 274 273 269 274 275 279 288 294 291 285 281 279 278 279 282 285 289 289 291 289 289 288 286 284 282 280 276 272 270 267 266 264 260 254 244 235 233 233 233 234 239 242 247 250 248 247 249 250 249 246 245 242 243 248 245 249 255 262 263 264 264 263 267 273 275 277 278 275 272
304 307 313 316 313 302 302 296 296 301 291 283 274 267 273 270 268 271 266 266 271 280 290 291 287 285 281 280 280 282 284 287 289 294 293 292 289 288 284 282 281 276 274 273 271 266 263 261 256 254 248 236 231 231 234 234 236 240 242 246 247 248 250 251 250 248 244 245 241 247 245 248 248 257 263 263 263 262 260 266 271 273 271 273 273
305 310 315 318 311 302 302 296 291 289 289 280 277 277 276 273 269 267 265 266 271 280 285 285 284 284 283 281 282 283 285 287 288 290 289 288 287 284 282 279 275 273 270 267 264 261 261 259 258 255 247 240 233 229 229 234 235 238 241 243 246 248 249 249 247 247 247 244 243 242 241 245 241 253 260 261 261 261 258 254 262 263 266 266 268
306 312 313 310 311 306 308 301 288 290 283 276 272 270 273 270 266 261 266 267 272 279 280 279 280 282 282 283 283 285 287 287 288 288 287 286 285 281 276 276 276 272 272 269 264 258 255 255 255 255 251 244 236 229 226 228 235 236 239 241 243 244 246 246 246 246 245 243 246 242 236 240 237 250 255 259 259 259 258 257 260 262 263 266 266
309 307 303 305 302 301 307 288 280 278 284 273 266 263 262 260 260 263 262 267 269 277 276 276 278 281 283 283 285 287 288 288 287 287 287 285 282 279 278 277 274 270 267 267 265 260 255 254 253 252 251 246 240 235 228 228 229 236 238 240 240 241 241 243 245 245 246 245 247 245 240 237 237 245 249 253 259 259 259 259 257 256 261 265 267
304 298 297 298 297 294 297 289 281 276 268 263 263 256 256 255 257 262 265 269 274 275 275 275 278 280 282 282 286 288 289 290 289 290 288 284 281 279 278 276 271 264 262 260 262 259 256 255 254 253 250 245 243 238 232 228 231 231 237 240 240 239 240 241 243 244 246 248 250 252 244 241 240 238 249 250 252 256 259 258 258 258 258 260 260
300 294 288 287 287 288 284 279 277 278 266 264 262 259 259 259 261 268 273 277 275 273 275 277 279 281 282 285 288 290 289 289 292 290 286 283 279 279 279 274 270 264 262 261 257 253 251 251 251 250 249 245 243 238 231 229 230 233 234 238 238 238 239 240 242 245 246 249 251 255 253 251 246 242 244 252 255 255 254 257 258 260 258 nan 255
298 291 282 278 280 285 286 272 271 266 263 260 258 257 259 265 271 273 271 278 276 273 279 280 283 284 284 286 286 287 288 289 290 285 283 280 280 281 278 274 271 267 264 261 256 249 247 249 249 249 248 245 242 237 231 232 232 230 229 231 235 236 237 238 241 244 248 250 253 257 257 257 253 250 243 245 253 254 253 251 254 260 258 261 257
295 293 290 289 282 291 280 273 274 274 262 265 266 272 276 284 276 276 278 278 276 279 283 285 285 282 278 281 283 284 286 289 287 284 274 274 273 276 275 273 269 265 260 258 256 250 246 244 245 246 245 242 240 238 236 235 232 232 228 227 228 232 235 237 240 244 248 251 254 256 260 260 256 251 247 247 248 250 255 254 255 258 262 261 262
298 303 301 300 296 302 294 283 283 285 287 311 317 319 314 300 295 294 292 282 281 281 284 286 284 277 274 279 282 286 288 284 271 263 259 268 277 280 273 264 260 259 256 255 253 246 240 239 240 241 240 239 240 239 238 237 233 232 231 230 228 230 233 236 238 242 245 249 251 253 254 258 259 251 249 247 250 247 252 257 257 257 257 259 260
300 312 311 314 315 309 301 288 283 306 328 338 329 321 322 318 314 309 299 289 290 288 290 287 283 271 268 283 272 267 268 263 272 280 268 258 268 279 263 259 262 263 259 253 249 245 240 237 239 239 243 244 242 245 244 239 237 233 233 233 228 227 229 232 234 239 242 245 248 252 255 260 263 268 260 253 253 250 248 252 257 256 254 254 257
316 318 324 325 313 300 292 279 284 312 317 319 321 325 331 322 313 307 303 296 300 298 294 285 291 284 300 314 287 282 269 269 276 278 276 287 302 272 266 268 264 264 262 259 256 252 247 242 239 240 239 242 242 241 243 241 236 237 237 237 233 233 235 236 237 240 241 243 247 251 255 258 261 262 265 265 253 251 251 247 250 256 254 255 257
338 330 339 334 320 307 298 286 289 292 295 304 316 324 328 318 310 308 308 305 302 306 296 298 301 301 310 303 303 302 293 281 290 276 281 293 290 282 280 267 261 261 263 260 259 258 251 247 243 242 241 241 243 239 239 241 235 237 242 242 241 241 242 242 242 243 246 246 248 252 253 254 255 255 257 257 265 260 250 249 248 249 256 259 257
354 345 343 341 337 331 321 307 300 296 292 290 299 311 316 312 308 311 311 310 306 306 298 298 303 303 304 307 314 315 308 310 287 268 280 296 290 282 272 265 261 261 262 262 261 257 252 248 245 244 246 246 248 248 247 245 241 239 238 243 244 242 243 243 242 245 248 251 252 253 253 253 254 255 253 253 253 257 256 251 250 251 251 255 257
348 345 344 347 346 340 332 322 311 304 294 290 289 296 299 300 302 308 303 292 287 284 285 287 296 303 309 303 296 301 304 309 298 292 301 304 291 280 270 267 265 263 263 265 262 254 249 247 245 243 246 253 254 255 257 254 249 245 248 249 242 238 237 238 241 245 249 250 249 252 254 254 253 252 255 253 254 253 263 257 253 251 250 250 250
331 338 343 341 337 334 336 329 308 298 282 273 278 284 289 290 288 286 284 280 278 281 283 288 290 291 294 296 297 297 293 292 288 287 292 294 286 279 274 272 270 267 265 263 260 255 248 245 246 245 250 259 264 267 267 264 260 255 254 250 247 243 240 240 242 243 245 248 246 247 249 250 250 248 252 255 254 254 252 261 262 259 259 252 250
302 323 318 312 318 327 330 324 311 294 278 275 278 280 283 281 275 276 279 283 287 287 291 290 290 291 291 294 294 287 284 284 284 290 288 282 279 274 272 273 273 271 270 266 263 259 253 249 250 253 253 256 265 272 274 269 265 257 254 248 249 247 245 242 241 244 244 243 244 245 248 250 254 256 255 253 252 250 252 249 249 251 259 263 252
276 283 294 293 306 318 321 317 306 296 287 282 282 282 283 283 281 279 285 291 292 291 290 288 288 287 286 286 280 275 268 264 266 271 279 276 267 269 269 269 271 274 275 273 267 264 261 258 255 259 265 266 268 273 273 270 261 260 252 251 252 249 246 246 245 244 245 246 245 245 251 256 259 259 259 258 257 254 253 254 255 252 251 262 261
259 275 284 297 309 311 314 315 299 298 295 292 290 290 291 288 289 299 296 297 296 291 287 285 284 279 276 275 272 269 269 271 270 276 274 271 270 269 271 269 266 272 273 270 267 265 263 260 257 256 266 272 273 276 279 272 272 267 263 262 257 252 251 252 248 245 244 245 250 252 256 258 262 264 261 262 263 261 257 255 256 253 252 251 259
261 265 277 297 307 298 310 299 295 299 300 301 297 297 299 299 299 303 299 299 297 293 288 284 280 274 271 267 264 263 263 264 269 267 271 271 268 269 271 274 276 273 270 268 266 264 266 266 263 260 262 272 274 280 279 275 275 272 276 270 261 258 254 252 250 246 242 247 251 257 258 261 264 266 269 268 268 265 263 261 258 259 258 255 254
270 261 260 270 275 291 299 288 293 299 298 298 299 295 294 286 290 297 302 298 286 280 280 278 275 272 265 264 264 261 263 261 267 270 274 270 271 269 268 268 268 267 267 267 266 266 265 268 268 265 269 265 266 265 275 266 278 281 271 273 272 272 261 258 258 250 246 249 253 258 262 265 nan 267 270 270 268 267 263 261 262 263 263 260 257
266 261 263 276 273 279 284 284 285 286 285 296 290 280 282 281 282 291 290 290 293 286 281 278 276 275 267 256 256 261 271 270 270 276 278 280 277 270 268 266 266 266 265 266 265 265 264 265 266 268 271 274 269 260 263 273 275 279 283 276 273 273 277 270 262 259 256 257 258 261 261 nan 265 266 266 267 267 266 264 262 260 259 259 260 261
272 272 273 277 272 286 286 288 283 284 280 286 287 286 285 284 286 285 285 283 284 288 286 278 275 275 nan 261 251 255 278 287 285 282 282 283 280 273 268 267 268 269 267 267 267 264 264 263 266 268 270 271 271 266 265 270 272 262 278 283 280 277 275 278 277 265 260 263 259 260 260 260 261 261 263 nan 270 269 266 263 261 261 261 259 258
286 283 279 276 278 277 280 279 273 274 281 290 291 290 292 295 298 298 298 294 294 298 295 286 278 275 nan nan nan 245 261 287 297 297 290 286 283 281 276 271 268 269 268 267 266 265 266 266 265 266 267 263 269 272 274 272 276 274 268 266 269 275 284 285 286 nan 270 266 265 nan nan nan nan nan nan nan nan nan nan nan nan nan nan nan nan
304 278 282 283 284 278 280 281 278 278 281 286 291 286 289 293 299 298 295 294 293 287 285 278 270 nan nan nan nan nan 260 280 295 301 296 287 282 280 278 275 270 268 268 268 269 271 269 266 266 264 264 266 271 272 277 278 278 273 273 272 270 267 272 284 280 282 280 nan nan nan nan nan nan nan nan nan nan nan nan nan nan nan nan nan nan
297 286 283 279 287 283 281 281 274 276 278 279 284 282 285 284 282 276 275 280 281 284 288 nan nan nan nan nan nan nan 273 279 290 296 295 287 280 279 278 278 275 269 268 266 265 264 263 264 266 262 264 267 271 274 277 281 282 279 279 276 271 272 273 269 279 284 nan nan nan nan nan nan nan nan nan nan nan nan nan nan nan nan nan nan nan
287 280 273 269 264 265 269 270 270 270 270 275 276 276 271 277 276 275 273 268 271 274 nan nan nan nan nan nan nan nan nan nan 284 288 289 284 277 274 278 279 275 270 266 264 263 262 262 263 265 266 268 268 268 271 275 280 280 281 282 281 280 278 275 274 276 279 nan nan nan nan nan nan nan nan nan nan nan nan nan nan nan nan nan nan nan
275 263 256 257 258 256 257 260 256 253 257 264 266 268 269 270 271 273 275 274 274 277 nan nan nan nan nan nan nan nan nan nan nan nan nan 279 272 268 269 271 272 269 265 263 261 260 259 260 261 263 266 268 267 272 273 276 275 279 279 281 282 283 283 283 281 282 nan nan nan nan nan nan nan nan nan nan nan nan nan nan nan nan nan nan nan
280 276 261 254 253 254 254 257 250 247 255 260 264 265 263 261 264 270 274 280 284 286 nan nan nan nan nan nan nan nan nan nan nan nan nan nan 267 261 261 263 264 264 264 264 261 259 260 260 261 262 263 265 267 270 270 272 273 276 277 279 282 284 284 287 287 285 nan nan nan nan nan nan nan nan nan nan nan nan nan nan nan nan nan nan nan